| time (UTC) | temp F | wind direction | speed MPH | gust MPH | rain 1hr in | rain 24hr in | rain mn in | humidity % | barometer mb |
| 20260906003659 | 57 | 275 | 2.0 | 8.0 | 0.00 | 0.22 | 0.00 | 86 | 1020.7 |
| 20260906003151 | 57 | 260 | 2.0 | 8.0 | 0.00 | 0.22 | 0.00 | 85 | 1020.6 |
| 20260906002655 | 57 | 359 | 1.0 | 7.0 | 0.00 | 0.22 | 0.00 | 86 | 1020.6 |
| 20260906002200 | 57 | 258 | 2.0 | 8.0 | 0.00 | 0.22 | 0.00 | 86 | 1020.7 |
| 20260906001703 | 57 | 279 | 2.0 | 8.0 | 0.00 | 0.22 | 0.00 | 86 | 1020.6 |
| 20260906001202 | 56 | 265 | 2.0 | 8.0 | 0.00 | 0.22 | 0.00 | 86 | 1020.4 |
| 20260906000656 | 56 | 293 | 2.0 | 8.0 | 0.00 | 0.22 | 0.00 | 86 | 1020.3 |
| 20260906000136 | 56 | 276 | 2.0 | 8.0 | 0.00 | 0.22 | 0.00 | 86 | 1020.2 |
| 20260905234941 | 56 | 299 | 2.0 | 8.0 | 0.00 | 0.22 | 0.00 | 87 | 1020.3 |
| 20260905234437 | 56 | 262 | 2.0 | 6.0 | 0.00 | 0.22 | 0.00 | 87 | 1020.2 |
| 20260905233938 | 56 | 285 | 3.0 | 6.0 | 0.00 | 0.22 | 0.00 | 87 | 1020.2 |
| 20260905233421 | 56 | 259 | 3.0 | 8.0 | 0.00 | 0.22 | 0.00 | 87 | 1020.1 |
| 20260905232909 | 56 | 258 | 2.0 | 8.0 | 0.00 | 0.22 | 0.00 | 87 | 1020.1 |
| 20260905232414 | 56 | 189 | 2.0 | 8.0 | 0.00 | 0.22 | 0.00 | 87 | 1020.1 |
| 20260905231913 | 55 | 257 | 2.0 | 8.0 | 0.00 | 0.22 | 0.00 | 87 | 1020.0 |
| 20260905230744 | 55 | 267 | 3.0 | 7.0 | 0.00 | 0.22 | 0.00 | 87 | 1019.8 |
| 20260905225027 | 55 | 237 | 3.0 | 8.0 | 0.00 | 0.22 | 0.00 | 87 | 1019.5 |
| 20260905224512 | 55 | 288 | 3.0 | 9.0 | 0.00 | 0.22 | 0.00 | 87 | 1019.5 |
| 20260905224015 | 55 | 262 | 3.0 | 9.0 | 0.00 | 0.22 | 0.00 | 87 | 1019.4 |
| 20260905222852 | 55 | 313 | 4.0 | 11.0 | 0.00 | 0.22 | 0.00 | 88 | 1019.1 |
| 20260905222359 | 55 | 274 | 4.0 | 11.0 | 0.00 | 0.22 | 0.00 | 88 | 1019.1 |
| 20260905221903 | 55 | 71 | 4.0 | 11.0 | 0.00 | 0.22 | 0.00 | 88 | 1018.8 |
| 20260905221410 | 55 | 288 | 3.0 | 9.0 | 0.00 | 0.22 | 0.00 | 88 | 1018.8 |
| 20260905220858 | 55 | 282 | 3.0 | 9.0 | 0.00 | 0.22 | 0.00 | 88 | 1018.8 |
| 20260905220405 | 54 | 275 | 3.0 | 9.0 | 0.00 | 0.22 | 0.00 | 88 | 1018.9 |
| 20260905215859 | 54 | 275 | 3.0 | 9.0 | 0.00 | 0.22 | 0.00 | 88 | 1018.8 |
| 20260905215402 | 54 | 250 | 3.0 | 8.0 | 0.00 | 0.22 | 0.00 | 88 | 1018.8 |
| 20260905214911 | 54 | 324 | 3.0 | 8.0 | 0.00 | 0.22 | 0.00 | 88 | 1018.8 |
| 20260905213759 | 54 | 253 | 3.0 | 8.0 | 0.00 | 0.22 | 0.00 | 88 | 1018.7 |
| 20260905213253 | 54 | 267 | 3.0 | 8.0 | 0.00 | 0.22 | 0.00 | 88 | 1018.6 |
| 20260905212754 | 54 | 272 | 2.0 | 10.0 | 0.00 | 0.22 | 0.00 | 88 | 1018.5 |
| 20260905212240 | 54 | 1 | 2.0 | 10.0 | 0.00 | 0.22 | 0.00 | 88 | 1018.4 |
| 20260905211726 | 54 | 339 | 3.0 | 10.0 | 0.00 | 0.22 | 0.00 | 88 | 1018.3 |
| 20260905211217 | 54 | 277 | 3.0 | 10.0 | 0.00 | 0.22 | 0.00 | 88 | 1018.3 |
| 20260905210722 | 54 | 268 | 3.0 | 9.0 | 0.00 | 0.23 | 0.00 | 88 | 1018.2 |
| 20260905210223 | 54 | 283 | 3.0 | 9.0 | 0.00 | 0.24 | 0.00 | 88 | 1018.1 |
| 20260905205717 | 54 | 253 | 5.0 | 9.0 | 0.00 | 0.25 | 0.00 | 88 | 1018.0 |
| 20260905205223 | 54 | 262 | 4.0 | 9.0 | 0.00 | 0.25 | 0.00 | 88 | 1018.0 |
| 20260905204725 | 54 | 315 | 3.0 | 9.0 | 0.00 | 0.25 | 0.00 | 88 | 1017.8 |
| 20260905204227 | 54 | 260 | 3.0 | 8.0 | 0.00 | 0.25 | 0.00 | 88 | 1017.8 |
| 20260905203727 | 54 | 288 | 3.0 | 8.0 | 0.00 | 0.25 | 0.00 | 88 | 1017.7 |
| 20260905201933 | 54 | 267 | 3.0 | 9.0 | 0.00 | 0.29 | 0.00 | 88 | 1017.3 |
| 20260905201439 | 54 | 282 | 3.0 | 9.0 | 0.00 | 0.29 | 0.00 | 88 | 1017.3 |
| 20260905200931 | 54 | 343 | 3.0 | 9.0 | 0.00 | 0.29 | 0.00 | 88 | 1017.4 |
| 20260905200429 | 54 | 266 | 3.0 | 8.0 | 0.00 | 0.30 | 0.00 | 88 | 1017.3 |
| 20260905195924 | 54 | 276 | 4.0 | 9.0 | 0.00 | 0.32 | 0.00 | 88 | 1017.0 |
| 20260905195424 | 54 | 268 | 4.0 | 9.0 | 0.00 | 0.32 | 0.00 | 88 | 1017.0 |
| 20260905194300 | 54 | 253 | 4.0 | 10.0 | 0.00 | 0.32 | 0.00 | 88 | 1016.9 |
| 20260905193746 | 54 | 251 | 4.0 | 10.0 | 0.00 | 0.32 | 0.00 | 89 | 1016.9 |
| 20260905193240 | 54 | 269 | 4.0 | 10.0 | 0.00 | 0.32 | 0.00 | 88 | 1016.9 |
| 20260905192732 | 54 | 258 | 4.0 | 11.0 | 0.00 | 0.32 | 0.00 | 89 | 1016.9 |
| 20260905192241 | 54 | 253 | 5.0 | 11.0 | 0.00 | 0.32 | 0.00 | 88 | 1016.8 |
| 20260905191747 | 54 | 279 | 5.0 | 13.0 | 0.00 | 0.32 | 0.00 | 88 | 1016.6 |
| 20260905191239 | 54 | 251 | 5.0 | 13.0 | 0.00 | 0.32 | 0.00 | 88 | 1016.7 |
| 20260905184816 | 54 | 54 | 4.0 | 10.0 | 0.00 | 0.32 | 0.00 | 87 | 1016.4 |
| 20260905184315 | 55 | 2 | 4.0 | 11.0 | 0.00 | 0.32 | 0.00 | 87 | 1016.3 |
| 20260905183158 | 55 | 292 | 4.0 | 11.0 | 0.00 | 0.32 | 0.00 | 87 | 1016.2 |
| 20260905182659 | 55 | 270 | 5.0 | 11.0 | 0.00 | 0.33 | 0.00 | 87 | 1016.1 |
| 20260905182203 | 55 | 313 | 5.0 | 10.0 | 0.00 | 0.34 | 0.00 | 87 | 1016.0 |
| 20260905181652 | 55 | 269 | 4.0 | 11.0 | 0.00 | 0.37 | 0.00 | 87 | 1016.0 |
| 20260905181153 | 55 | 296 | 4.0 | 11.0 | 0.00 | 0.40 | 0.00 | 87 | 1015.9 |
| 20260905180036 | 55 | 319 | 5.0 | 11.0 | 0.00 | 0.40 | 0.00 | 87 | 1015.5 |
| 20260905174233 | 55 | 331 | 4.0 | 10.0 | 0.00 | 0.40 | 0.00 | 87 | 1014.9 |
| 20260905172458 | 55 | 312 | 4.0 | 12.0 | 0.00 | 0.40 | 0.00 | 87 | 1014.7 |
| 20260905172001 | 55 | 330 | 4.0 | 12.0 | 0.00 | 0.40 | 0.00 | 87 | 1014.7 |
| 20260905170831 | 55 | 281 | 4.0 | 10.0 | 0.00 | 0.41 | 0.00 | 87 | 1014.5 |
| 20260905170315 | 55 | 251 | 4.0 | 10.0 | 0.00 | 0.42 | 0.00 | 87 | 1014.5 |
| 20260905165815 | 55 | 321 | 5.0 | 10.0 | 0.00 | 0.43 | 0.00 | 87 | 1014.4 |
| 20260905165259 | 55 | 255 | 5.0 | 10.0 | 0.00 | 0.43 | 0.00 | 87 | 1014.4 |
| 20260905164133 | 55 | 295 | 4.0 | 10.0 | 0.00 | 0.43 | 0.00 | 87 | 1014.2 |
| 20260905163003 | 55 | 282 | 4.0 | 10.0 | 0.00 | 0.43 | 0.00 | 87 | 1014.0 |
| 20260905162502 | 55 | 280 | 3.0 | 9.0 | 0.00 | 0.43 | 0.00 | 86 | 1014.0 |
| 20260905161958 | 55 | 349 | 3.0 | 10.0 | 0.00 | 0.44 | 0.00 | 86 | 1013.9 |
| 20260905161447 | 55 | 75 | 3.0 | 10.0 | 0.00 | 0.44 | 0.00 | 87 | 1013.9 |
| 20260905160955 | 55 | 25 | 4.0 | 10.0 | 0.00 | 0.45 | 0.00 | 86 | 1013.9 |
| 20260905160458 | 55 | 276 | 4.0 | 10.0 | 0.00 | 0.45 | 0.00 | 86 | 1014.0 |
| 20260905155938 | 55 | 248 | 4.0 | 9.0 | 0.00 | 0.46 | 0.00 | 86 | 1013.8 |
| 20260905155423 | 55 | 231 | 4.0 | 11.0 | 0.00 | 0.47 | 0.00 | 86 | 1013.6 |
| 20260905154913 | 55 | 279 | 5.0 | 11.0 | 0.00 | 0.48 | 0.00 | 86 | 1013.6 |
| 20260905154353 | 55 | 247 | 4.0 | 11.0 | 0.00 | 0.48 | 0.00 | 86 | 1013.4 |
| 20260905153228 | 55 | 248 | 5.0 | 11.0 | 0.00 | 0.49 | 0.00 | 86 | 1013.3 |
| 20260905152728 | 55 | 288 | 5.0 | 12.0 | 0.00 | 0.49 | 0.00 | 86 | 1013.3 |
| 20260905152227 | 55 | 232 | 5.0 | 12.0 | 0.00 | 0.49 | 0.00 | 86 | 1013.2 |
| 20260905151736 | 55 | 252 | 5.0 | 13.0 | 0.00 | 0.49 | 0.00 | 86 | 1013.2 |
| 20260905151246 | 55 | 272 | 6.0 | 13.0 | 0.00 | 0.49 | 0.00 | 86 | 1013.0 |
| 20260905150750 | 55 | 274 | 6.0 | 13.0 | 0.00 | 0.50 | 0.00 | 85 | 1012.8 |
| 20260905150239 | 55 | 279 | 5.0 | 13.0 | 0.00 | 0.50 | 0.00 | 86 | 1012.6 |
| 20260905145747 | 55 | 296 | 5.0 | 13.0 | 0.00 | 0.51 | 0.00 | 86 | 1012.5 |
| 20260905145256 | 55 | 296 | 5.0 | 13.0 | 0.00 | 0.51 | 0.00 | 86 | 1012.5 |
| 20260905144803 | 55 | 273 | 4.0 | 13.0 | 0.00 | 0.51 | 0.00 | 86 | 1012.3 |
| 20260905143635 | 55 | 170 | 5.0 | 10.0 | 0.00 | 0.51 | 0.00 | 87 | 1012.0 |
| 20260905143119 | 55 | 308 | 5.0 | 10.0 | 0.00 | 0.51 | 0.00 | 87 | 1012.0 |
| 20260905142620 | 55 | 6 | 4.0 | 10.0 | 0.00 | 0.51 | 0.00 | 87 | 1011.9 |
| 20260905142129 | 55 | 329 | 5.0 | 15.0 | 0.00 | 0.51 | 0.00 | 87 | 1011.8 |
| 20260905135738 | 55 | 297 | 7.0 | 18.0 | 0.00 | 0.58 | 0.58 | 86 | 1011.4 |
| 20260905135248 | 55 | 299 | 7.0 | 18.0 | 0.00 | 0.58 | 0.58 | 86 | 1011.4 |
| 20260905134730 | 55 | 297 | 7.0 | 18.0 | 0.00 | 0.58 | 0.58 | 86 | 1011.2 |
| 20260905134217 | 55 | 256 | 7.0 | 13.0 | 0.00 | 0.58 | 0.58 | 86 | 1011.2 |
| 20260905133705 | 55 | 305 | 7.0 | 13.0 | 0.00 | 0.58 | 0.58 | 86 | 1011.1 |
| 20260905133202 | 55 | 260 | 6.0 | 12.0 | 0.00 | 0.58 | 0.58 | 86 | 1011.1 |
| 20260905132031 | 55 | 267 | 7.0 | 16.0 | 0.00 | 0.57 | 0.57 | 85 | 1010.9 |
| 20260905131525 | 55 | 239 | 6.0 | 16.0 | 0.00 | 0.57 | 0.57 | 85 | 1010.8 |
| 20260905130412 | 55 | 227 | 7.0 | 14.0 | 0.00 | 0.57 | 0.57 | 85 | 1010.6 |
| 20260905125856 | 55 | 227 | 7.0 | 14.0 | 0.00 | 0.57 | 0.57 | 85 | 1010.6 |
| 20260905125341 | 55 | 260 | 8.0 | 14.0 | 0.00 | 0.57 | 0.57 | 84 | 1010.6 |
| 20260905124823 | 55 | 267 | 6.0 | 13.0 | 0.00 | 0.57 | 0.57 | 84 | 1010.4 |
| 20260905124323 | 55 | 247 | 4.0 | 11.0 | 0.00 | 0.57 | 0.57 | 83 | 1010.3 |
| 20260905123817 | 55 | 298 | 5.0 | 11.0 | 0.00 | 0.57 | 0.57 | 83 | 1010.3 |
| 20260905123319 | 55 | 236 | 5.0 | 14.0 | 0.00 | 0.57 | 0.57 | 82 | 1010.2 |
| 20260905122826 | 55 | 265 | 5.0 | 14.0 | 0.00 | 0.57 | 0.57 | 81 | 1010.1 |
| 20260905121706 | 55 | 255 | 3.0 | 13.0 | 0.00 | 0.58 | 0.57 | 81 | 1009.8 |
| 20260905120535 | 55 | 272 | 4.0 | 13.0 | 0.00 | 0.59 | 0.57 | 80 | 1009.6 |
| 20260905120027 | 55 | 272 | 4.0 | 13.0 | 0.00 | 0.59 | 0.57 | 80 | 1009.6 |
| 20260905115528 | 55 | 355 | 4.0 | 12.0 | 0.00 | 0.59 | 0.57 | 81 | 1009.6 |
| 20260905114400 | 55 | 304 | 5.0 | 14.0 | 0.00 | 0.59 | 0.57 | 81 | 1009.3 |
| 20260905113858 | 55 | 269 | 6.0 | 14.0 | 0.00 | 0.59 | 0.57 | 81 | 1009.4 |
| 20260905113356 | 55 | 272 | 5.0 | 14.0 | 0.00 | 0.59 | 0.57 | 81 | 1009.3 |
| 20260905112900 | 55 | 269 | 3.0 | 14.0 | 0.00 | 0.59 | 0.57 | 81 | 1009.3 |
| 20260905112357 | 55 | 292 | 3.0 | 18.0 | 0.00 | 0.59 | 0.57 | 81 | 1009.2 |
| 20260905111236 | 56 | 300 | 8.0 | 18.0 | 0.00 | 0.59 | 0.57 | 80 | 1008.9 |
| 20260905110730 | 56 | 282 | 7.0 | 18.0 | 0.00 | 0.59 | 0.57 | 79 | 1008.9 |
| 20260905110212 | 56 | 279 | 6.0 | 16.0 | 0.00 | 0.59 | 0.57 | 79 | 1008.8 |
| 20260905105035 | 56 | 32 | 6.0 | 12.0 | 0.00 | 0.59 | 0.57 | 79 | 1008.7 |
| 20260905104316 | 56 | 268 | 4.0 | 16.0 | 0.00 | 0.59 | 0.57 | 79 | 1008.5 |
| 20260905103217 | 56 | 230 | 3.0 | 15.0 | 0.00 | 0.60 | 0.57 | 79 | 1008.2 |
| 20260905102721 | 56 | 317 | 3.0 | 15.0 | 0.00 | 0.60 | 0.57 | 78 | 1008.1 |
| 20260905102219 | 56 | 321 | 5.0 | 15.0 | 0.00 | 0.60 | 0.57 | 78 | 1008.0 |
| 20260905101717 | 56 | 250 | 5.0 | 15.0 | 0.00 | 0.60 | 0.57 | 79 | 1008.0 |
| 20260905101223 | 56 | 262 | 4.0 | 13.0 | 0.00 | 0.60 | 0.57 | 78 | 1007.9 |
| 20260905100722 | 56 | 261 | 4.0 | 13.0 | 0.00 | 0.60 | 0.57 | 78 | 1007.8 |
| 20260905100224 | 56 | 337 | 4.0 | 12.0 | 0.00 | 0.60 | 0.57 | 77 | 1007.7 |
| 20260905094426 | 56 | 257 | 5.0 | 16.0 | 0.00 | 0.60 | 0.57 | 77 | 1007.3 |
| 20260905093255 | 56 | 290 | 6.0 | 16.0 | 0.00 | 0.60 | 0.57 | 78 | 1007.0 |
| 20260905092747 | 56 | 247 | 5.0 | 16.0 | 0.00 | 0.59 | 0.56 | 78 | 1006.9 |
| 20260905092244 | 56 | 316 | 4.0 | 14.0 | 0.00 | 0.59 | 0.56 | 78 | 1006.8 |
| 20260905091749 | 56 | 264 | 4.0 | 14.0 | 0.00 | 0.59 | 0.56 | 78 | 1006.7 |
| 20260905091230 | 56 | 224 | 4.0 | 13.0 | 0.00 | 0.59 | 0.56 | 79 | 1006.7 |
| 20260905090738 | 56 | 262 | 4.0 | 13.0 | 0.00 | 0.59 | 0.56 | 79 | 1006.6 |
| 20260905090218 | 55 | 313 | 4.0 | 13.0 | 0.00 | 0.59 | 0.56 | 80 | 1006.4 |
| 20260905085708 | 55 | 298 | 3.0 | 13.0 | 0.00 | 0.59 | 0.56 | 80 | 1006.1 |
| 20260905085157 | 55 | 338 | 2.0 | 12.0 | 0.00 | 0.59 | 0.56 | 81 | 1006.0 |
| 20260905084703 | 55 | 352 | 2.0 | 9.0 | 0.00 | 0.59 | 0.56 | 81 | 1006.1 |
| 20260905084157 | 55 | 281 | 1.0 | 7.0 | 0.00 | 0.59 | 0.56 | 82 | 1005.9 |
| 20260905083643 | 55 | 292 | 2.0 | 8.0 | 0.00 | 0.59 | 0.56 | 82 | 1006.0 |
| 20260905083142 | 55 | 269 | 2.0 | 8.0 | 0.00 | 0.59 | 0.56 | 82 | 1005.9 |
| 20260905082647 | 55 | 236 | 2.0 | 8.0 | 0.00 | 0.59 | 0.56 | 82 | 1005.8 |
| 20260905082130 | 55 | 236 | 2.0 | 7.0 | 0.00 | 0.59 | 0.56 | 83 | 1005.7 |
| 20260905081631 | 55 | 261 | 2.0 | 11.0 | 0.00 | 0.59 | 0.56 | 83 | 1005.7 |
| 20260905080453 | 55 | 286 | 3.0 | 11.0 | 0.00 | 0.59 | 0.56 | 84 | 1005.3 |
| 20260905075950 | 55 | 253 | 3.0 | 9.0 | 0.00 | 0.59 | 0.56 | 85 | 1005.1 |
| 20260905075431 | 55 | 268 | 2.0 | 9.0 | 0.00 | 0.59 | 0.56 | 86 | 1005.2 |
| 20260905074246 | 55 | 311 | 1.0 | 14.0 | 0.00 | 0.59 | 0.56 | 87 | 1004.8 |
| 20260905073751 | 55 | 268 | 4.0 | 14.0 | 0.00 | 0.59 | 0.56 | 88 | 1004.9 |
| 20260905073233 | 55 | 256 | 5.0 | 14.0 | 0.00 | 0.59 | 0.56 | 88 | 1005.0 |
| 20260905072056 | 54 | 301 | 1.0 | 6.0 | 0.00 | 0.59 | 0.56 | 89 | 1004.9 |
| 20260905071550 | 54 | 260 | 2.0 | 8.0 | 0.00 | 0.59 | 0.56 | 88 | 1004.7 |
| 20260905071042 | 55 | 236 | 3.0 | 8.0 | 0.00 | 0.59 | 0.56 | 88 | 1004.6 |
| 20260905070537 | 55 | 280 | 3.0 | 12.0 | 0.00 | 0.59 | 0.56 | 87 | 1004.3 |
| 20260905070026 | 55 | 301 | 5.0 | 12.0 | 0.00 | 0.59 | 0.56 | 87 | 1004.3 |
| 20260905064847 | 56 | 334 | 6.0 | 17.0 | 0.07 | 0.59 | 0.56 | 82 | 1004.6 |
| 20260905064356 | 58 | 345 | 7.0 | 17.0 | 0.29 | 0.59 | 0.56 | 76 | 1004.3 |
| 20260905063839 | 61 | 283 | 5.0 | 17.0 | 0.00 | 0.42 | 0.37 | 72 | 1004.4 |
| 20260905063326 | 62 | 92 | 3.0 | 16.0 | 0.00 | 0.42 | 0.37 | 69 | 1003.6 |
| 20260905062149 | 64 | 316 | 3.0 | 14.0 | 0.00 | 0.42 | 0.37 | 66 | 1003.0 |
| 20260905061629 | 64 | 283 | 4.0 | 14.0 | 0.00 | 0.42 | 0.37 | 65 | 1003.0 |
| 20260905061136 | 63 | 328 | 5.0 | 14.0 | 0.00 | 0.42 | 0.37 | 64 | 1003.0 |
| 20260905060638 | 63 | 296 | 4.0 | 14.0 | 0.00 | 0.42 | 0.37 | 67 | 1003.0 |
| 20260905060133 | 63 | 279 | 3.0 | 8.0 | 0.00 | 0.42 | 0.37 | 67 | 1003.0 |
| 20260905055637 | 63 | 299 | 3.0 | 10.0 | 0.00 | 0.42 | 0.37 | 68 | 1003.1 |
| 20260905055131 | 63 | 241 | 3.0 | 10.0 | 0.00 | 0.42 | 0.37 | 67 | 1003.2 |
| 20260905054624 | 63 | 345 | 3.0 | 14.0 | 0.00 | 0.42 | 0.37 | 67 | 1003.3 |
| 20260905054111 | 63 | 250 | 5.0 | 14.0 | 0.00 | 0.42 | 0.37 | 65 | 1003.2 |
| 20260905052945 | 63 | 243 | 5.0 | 14.0 | 0.00 | 0.42 | 0.37 | 59 | 1003.1 |
| 20260905052448 | 64 | 239 | 5.0 | 14.0 | 0.00 | 0.42 | 0.37 | 62 | 1002.8 |
| 20260905051941 | 64 | 321 | 5.0 | 14.0 | 0.00 | 0.42 | 0.37 | 57 | 1002.6 |
| 20260905051433 | 64 | 40 | 4.0 | 12.0 | 0.00 | 0.42 | 0.37 | 60 | 1002.6 |
| 20260905050934 | 65 | 354 | 3.0 | 14.0 | 0.00 | 0.42 | 0.37 | 61 | 1002.6 |
| 20260905050429 | 65 | 317 | 4.0 | 14.0 | 0.00 | 0.42 | 0.37 | 62 | 1002.5 |
| 20260905045926 | 65 | 269 | 4.0 | 16.0 | 0.00 | 0.42 | 0.37 | 62 | 1002.5 |
| 20260905045428 | 64 | 307 | 4.0 | 16.0 | 0.00 | 0.42 | 0.37 | 62 | 1002.4 |
| 20260905044927 | 64 | 302 | 5.0 | 16.0 | 0.00 | 0.42 | 0.37 | 62 | 1002.4 |
| 20260905044413 | 64 | 245 | 5.0 | 16.0 | 0.00 | 0.42 | 0.37 | 59 | 1002.3 |
| 20260905043859 | 64 | 262 | 5.0 | 13.0 | 0.00 | 0.42 | 0.37 | 63 | 1002.4 |
| 20260905042713 | 63 | 263 | 5.0 | 14.0 | 0.00 | 0.42 | 0.37 | 64 | 1002.3 |
| 20260905041607 | 63 | 226 | 9.0 | 17.0 | 0.00 | 0.42 | 0.37 | 63 | 1002.2 |
| 20260905041050 | 63 | 298 | 9.0 | 17.0 | 0.00 | 0.42 | 0.37 | 62 | 1002.3 |
| 20260905035926 | 63 | 320 | 9.0 | 16.0 | 0.00 | 0.42 | 0.37 | 64 | 1002.3 |
| 20260905035428 | 63 | 248 | 8.0 | 18.0 | 0.00 | 0.42 | 0.37 | 62 | 1002.4 |
| 20260905034912 | 63 | 300 | 8.0 | 18.0 | 0.00 | 0.42 | 0.37 | 66 | 1002.4 |
| 20260905034409 | 63 | 284 | 7.0 | 18.0 | 0.00 | 0.42 | 0.37 | 68 | 1002.4 |
| 20260905033908 | 63 | 260 | 5.0 | 18.0 | 0.00 | 0.42 | 0.37 | 68 | 1002.4 |
| 20260905033411 | 63 | 301 | 5.0 | 13.0 | 0.00 | 0.42 | 0.37 | 70 | 1002.4 |
| 20260905032859 | 62 | 271 | 7.0 | 16.0 | 0.00 | 0.42 | 0.37 | 70 | 1002.5 |
| 20260905032402 | 62 | 295 | 8.0 | 16.0 | 0.00 | 0.42 | 0.37 | 69 | 1002.6 |
| 20260905030621 | 62 | 245 | 9.0 | 17.0 | 0.00 | 0.42 | 0.37 | 69 | 1002.8 |
| 20260905030111 | 61 | 254 | 9.0 | 17.0 | 0.00 | 0.42 | 0.37 | 72 | 1002.9 |
| 20260905025605 | 60 | 243 | 8.0 | 14.0 | 0.00 | 0.42 | 0.37 | 73 | 1003.0 |
| 20260905025110 | 60 | 306 | 8.0 | 14.0 | 0.00 | 0.42 | 0.37 | 74 | 1002.9 |
| 20260905024606 | 60 | 253 | 8.0 | 19.0 | 0.03 | 0.42 | 0.37 | 73 | 1003.0 |
| 20260905024052 | 59 | 249 | 10.0 | 19.0 | 0.05 | 0.42 | 0.37 | 73 | 1003.0 |
| 20260905023553 | 59 | 269 | 11.0 | 21.0 | 0.07 | 0.42 | 0.37 | 72 | 1003.2 |
| 20260905023048 | 59 | 344 | 11.0 | 21.0 | 0.06 | 0.42 | 0.37 | 72 | 1003.1 |
| 20260905021310 | 61 | 238 | 10.0 | 24.0 | 0.33 | 0.42 | 0.36 | 69 | 1003.3 |
| 20260905020801 | 64 | 262 | 7.0 | 19.0 | 0.00 | 0.39 | 0.36 | 64 | 1003.0 |
| 20260905020259 | 63 | 248 | 6.0 | 19.0 | 0.00 | 0.39 | 0.36 | 65 | 1002.7 |
| 20260905015758 | 64 | 251 | 6.0 | 19.0 | 0.00 | 0.39 | 0.36 | 66 | 1002.8 |
| 20260905015254 | 64 | 73 | 8.0 | 19.0 | 0.00 | 0.39 | 0.36 | 64 | 1002.9 |
| 20260905014744 | 64 | 284 | 8.0 | 19.0 | 0.00 | 0.39 | 0.36 | 63 | 1002.8 |
| 20260905013607 | 65 | 264 | 8.0 | 18.0 | 0.00 | 0.39 | 0.36 | 62 | 1002.8 |
| 20260905013058 | 65 | 227 | 8.0 | 16.0 | 0.00 | 0.39 | 0.36 | 64 | 1002.8 |
| 20260905012541 | 65 | 308 | 7.0 | 16.0 | 0.00 | 0.39 | 0.36 | 65 | 1002.9 |
| 20260905011404 | 64 | 295 | 6.0 | 16.0 | 0.00 | 0.39 | 0.36 | 66 | 1002.9 |
| 20260905010857 | 63 | 307 | 3.0 | 16.0 | 0.00 | 0.39 | 0.36 | 73 | 1002.9 |
| 20260905010345 | 63 | 307 | 3.0 | 16.0 | 0.00 | 0.39 | 0.36 | 73 | 1002.9 |
| 20260905005845 | 63 | 278 | 3.0 | 16.0 | 0.00 | 0.39 | 0.36 | 80 | 1002.8 |
| 20260905005344 | 62 | 268 | 3.0 | 10.0 | 0.00 | 0.39 | 0.36 | 82 | 1002.9 |
| 20260905004828 | 62 | 297 | 3.0 | 10.0 | 0.00 | 0.39 | 0.36 | 84 | 1002.8 |
| 20260905004324 | 61 | 321 | 3.0 | 10.0 | 0.00 | 0.39 | 0.36 | 87 | 1002.8 |